"Time","Temp","Dewpoint","Humidity","Pressure","Direction","Speed","Gust","Precip","PrecipRate"
"00:04:58","70.5","69.1","95.4","29.92","217","0","0","0.00","0.00"
"00:09:57","70.5","69.3","96","29.92","217","0","0","0.00","0.00"
"00:14:56","70.4","69.2","96","29.92","217","0","0","0.00","0.00"
"00:19:56","70.4","69.2","96","29.92","217","0","0","0.00","0.00"
"00:24:59","70.4","69.2","96","29.92","217","0","0","0.00","0.00"
"00:29:58","70.3","69.1","96","29.92","217","0","0","0.00","0.00"
"00:34:57","70.3","69.1","96","29.92","217","0","0","0.00","0.00"
"00:39:57","70.1","68.9","96","29.92","217","0","0","0.00","0.00"
"00:44:57","70.1","68.9","96","29.92","217","0","0","0.00","0.00"
"00:49:57","69.9","68.7","96","29.92","217","0","0","0.00","0.00"
"00:54:56","69.9","68.7","96","29.92","217","0","0","0.00","0.00"
"00:59:59","69.9","68.7","96","29.92","217","0","0","0.00","0.00"
"01:04:58","69.8","68.6","96","29.92","217","0","0","0.00","0.00"
"01:09:57","69.8","68.6","96","29.92","217","0","0","0.00","0.00"
"01:14:56","69.7","68.5","96","29.92","217","0","0","0.00","0.00"
"01:19:56","69.6","68.4","96","29.92","217","0","0","0.00","0.00"
"01:24:59","69.6","68.4","96","29.92","217","0","0","0.00","0.00"
"01:29:58","69.6","68.4","96","29.92","217","0","0","0.00","0.00"
"01:34:57","69.5","68.3","96","29.92","217","0","0","0.00","0.00"
"01:39:57","69.4","68.2","96","29.92","217","0","0","0.00","0.00"
"01:44:56","69.4","68.2","96","29.92","217","0","0","0.00","0.00"
"01:49:56","69.3","68.1","96","29.91","217","0","0","0.00","0.00"
"01:54:59","69.3","68.3","96.7","29.91","217","0","0","0.00","0.00"
"01:59:58","69.3","68.4","97","29.91","217","0","0","0.00","0.00"
"02:04:57","69.3","68.4","97","29.90","217","0","0","0.00","0.00"
"02:09:56","69.3","68.4","97","29.90","217","0","0","0.00","0.00"
"02:14:56","69.2","68.3","97","29.90","217","0","0","0.00","0.00"
"02:19:59","69.2","68.3","97","29.90","217","0","0","0.00","0.00"
"02:24:58","69.1","68.2","97","29.90","217","0","0","0.00","0.00"
"02:29:58","69.1","68.2","97","29.90","217","0","0","0.00","0.00"
"02:34:56","69","68.1","96.8","29.90","217","0","0","0.00","0.00"
"02:39:56","68.9","67.8","96.3","29.90","217","0","0","0.00","0.00"
"02:44:59","68.8","67.6","96","29.90","217","0","0","0.00","0.00"
"02:49:59","68.8","67.6","96","29.89","217","0","0","0.00","0.00"
"02:54:57","68.8","67.7","96.6","29.89","217","0","0","0.00","0.00"
"02:59:57","68.7","67.8","97","29.90","217","0","0","0.00","0.00"
"03:04:57","68.7","67.8","97","29.90","217","0","0","0.00","0.00"
"03:09:56","68.7","67.8","97","29.90","217","0","0","0.00","0.00"
"03:14:59","68.6","67.7","97","29.90","217","0","0","0.00","0.00"
"03:19:59","68.6","67.7","97","29.89","217","0","0","0.00","0.00"
"03:24:57","68.5","67.6","97","29.89","217","0","0","0.00","0.00"
"03:29:56","68.4","67.5","97","29.90","217","0","0","0.00","0.00"
"03:34:58","68.4","67.5","97","29.90","217","0","0","0.00","0.00"
"03:39:58","68.5","67.6","97","29.90","217","0","0","0.00","0.00"
"03:44:56","68.6","67.7","97","29.90","217","0.1","2.4","0.00","0.00"
"03:49:59","68.6","67.7","97","29.89","217","0.9","2.4","0.00","0.00"
"03:54:57","68.5","67.6","97","29.89","217","0.2","1.2","0.00","0.00"
"03:59:56","68.5","67.6","97","29.89","217","0.3","1.2","0.00","0.00"
"04:04:59","68.5","67.6","97","29.89","217","0","1.2","0.00","0.00"
"04:09:57","68.4","67.5","97","29.89","217","0.2","1.2","0.00","0.00"
"04:14:57","68.3","67.4","97","29.89","217","0.3","2.4","0.00","0.00"
"04:19:55","68.4","67.5","97","29.89","217","0.3","1.2","0.00","0.00"
"04:24:58","68.4","67.5","97","29.89","217","0","0","0.00","0.00"
"04:29:56","68.4","67.5","97","29.89","217","0","0","0.00","0.00"
"04:34:59","68.4","67.5","97","29.89","217","0","0","0.00","0.00"
"04:39:58","68.4","67.5","97","29.89","217","0","0","0.00","0.00"
"04:44:56","68.3","67.4","97","29.89","217","0","0","0.00","0.00"
"04:49:59","68.2","67.3","97","29.89","217","0","0","0.00","0.00"
"04:54:57","68.2","67.3","97","29.89","217","0","0","0.00","0.00"
"04:59:56","68.2","67.3","97","29.89","217","0","0","0.00","0.00"
"05:04:59","68.2","67.3","97","29.89","217","0","0","0.00","0.00"
"05:09:57","68.1","67.2","97","29.89","217","0","0","0.00","0.00"
"05:14:56","68","67.1","97","29.89","217","0","0","0.00","0.00"
"05:19:59","67.9","67","97","29.89","217","0","0","0.00","0.00"
"05:24:57","67.9","67","97","29.89","217","0","0","0.00","0.00"
"05:29:59","67.9","67","97","29.90","217","0","0","0.00","0.00"
"05:34:58","67.9","67","97","29.90","217","0","0","0.00","0.00"
"05:39:57","67.8","66.9","97","29.90","217","0","0","0.00","0.00"
"05:44:59","67.8","66.9","97","29.91","217","0.1","1.2","0.00","0.00"
"05:49:58","67.7","66.8","97","29.91","217","0.5","1.2","0.00","0.00"
"05:54:56","67.7","66.8","97","29.91","217","0","0","0.00","0.00"
"05:59:58","67.6","66.7","97","29.91","216","0.1","1.2","0.00","0.00"
"06:04:58","67.6","66.7","97","29.91","218","0.1","1.2","0.00","0.00"
"06:09:57","67.5","66.6","97","29.91","218","0","0","0.00","0.00"
"06:14:56","67.5","66.6","97","29.92","218","0","0","0.00","0.00"
"06:19:56","67.6","66.7","97","29.92","218","0.2","1.2","0.00","0.00"
"06:24:57","67.8","67","97.4","29.92","218","0.1","1.2","0.00","0.00"
"06:29:59","67.8","67.2","98","29.92","218","0.1","1.2","0.00","0.00"
"06:34:57","68","67.4","98","29.92","218","0","1.2","0.00","0.00"
"06:39:56","68","67.4","97.8","29.92","218","0","0","0.00","0.00"
"06:44:58","68.1","67.4","97.7","29.92","218","0","0","0.00","0.00"
"06:49:56","68.2","67.5","97.8","29.91","217","0","0","0.00","0.00"
"06:54:58","68.3","67.7","98","29.91","217","0","0","0.00","0.00"
"06:59:56","68.4","67.8","98","29.92","217","0","0","0.00","0.00"
"07:04:59","68.5","67.9","98","29.92","217","0","0","0.00","0.00"
"07:09:58","68.7","68.1","98","29.92","217","0.7","2.4","0.00","0.00"
"07:14:56","69.1","68.5","98","29.93","218","1.4","3.6","0.00","0.00"
"07:19:59","69.5","68.9","98","29.93","219","0.5","2.4","0.00","0.00"
"07:24:56","70.1","69.5","98","29.93","219","0.5","2.4","0.00","0.00"
"07:29:58","70.5","69.9","98","29.93","219","1.7","3.6","0.00","0.00"
"07:34:56","70.8","70.2","98","29.92","220","1.9","3.6","0.00","0.00"
"07:39:59","71.2","70.6","98","29.92","257","2.6","4.8","0.00","0.00"
"07:44:57","71.8","71.1","97.9","29.93","285","1.2","3.5","0.00","0.00"
"07:49:59","72.3","71.4","97","29.93","285","1","4.8","0.00","0.00"
"07:54:57","72.8","71.6","96.2","29.93","285","1.3","3.6","0.00","0.00"
"07:59:59","73.2","71.7","95.1","29.94","285","0.7","3.5","0.00","0.00"
"08:04:58","73.7","72.2","95","29.94","285","0.2","2.4","0.00","0.00"
"08:09:57","74.2","72.4","94.1","29.94","285","0.4","2.4","0.00","0.00"
"08:14:59","74.6","72.5","93.3","29.94","285","0.8","3.6","0.00","0.00"
"08:19:57","74.9","72.6","92.5","29.94","285","0.6","3.5","0.00","0.00"
"08:24:59","75.3","72.7","91.6","29.94","285","0","0","0.00","0.00"
"08:29:57","75.8","73.2","91.6","29.94","285","0","1.2","0.00","0.00"
"08:34:59","76.3","73.4","90.7","29.94","285","0","1.2","0.00","0.00"
"08:39:58","76.8","73.5","89.6","29.94","284","0.4","2.4","0.00","0.00"
"08:44:56","77.2","73.6","88.5","29.94","281","0.6","2.4","0.00","0.00"
"08:49:58","77.6","73.8","88.2","29.94","281","0.3","2.4","0.00","0.00"
"08:54:56","77.9","73.8","87.2","29.94","281","0.8","2.4","0.00","0.00"
"08:59:58","78.2","74.2","87.5","29.94","280","0.1","2.4","0.00","0.00"
"09:04:57","78.7","74.4","86.6","29.94","279","0.6","2.4","0.00","0.00"
"09:09:57","79.1","74.7","86.5","29.94","279","0.7","2.4","0.00","0.00"
"09:14:57","79.5","74.9","85.9","29.94","227","0","1.2","0.00","0.00"
"09:19:56","79.8","75","85.3","29.94","215","0.2","2.4","0.00","0.00"
"09:24:58","80.2","75.2","84.7","29.94","215","0.3","2.4","0.00","0.00"
"09:29:57","80.6","75.1","83.4","29.94","215","0.7","2.4","0.00","0.00"
"09:34:56","80.7","75.1","83","29.94","217","0.2","1.2","0.00","0.00"
"09:39:56","80.9","75.4","83.3","29.94","232","0.2","2.4","0.00","0.00"
"09:44:58","81.3","75.5","82.7","29.95","229","0.7","3.6","0.00","0.00"
"09:49:58","81.6","75.8","82.5","29.95","206","0.2","3.6","0.00","0.00"
"09:54:57","82","76.1","82.2","29.95","182","1.4","3.5","0.00","0.00"
"09:59:56","82.3","76.3","82","29.95","157","1.7","7.2","0.00","0.00"
"10:04:56","82.4","76","81.1","29.94","135","1.1","6.9","0.00","0.00"
"10:09:56","82.6","76.3","81.3","29.94","160","1.7","4.8","0.00","0.00"
"10:14:59","82.7","76.2","80.7","29.94","171","2.9","6","0.00","0.00"
"10:19:58","82.8","76.3","81","29.93","188","2.3","4.8","0.00","0.00"
"10:24:57","83","76.4","80.5","29.93","172","1.1","3.6","0.00","0.00"
"10:29:56","83","76.3","80.3","29.93","169","0.8","3.6","0.00","0.00"
"10:34:59","82.9","76.1","80","29.93","167","1.7","3.6","0.00","0.00"
"10:39:59","82.7","76.3","81","29.93","167","1.1","3.6","0.00","0.00"
"10:44:58","82.9","76.4","80.8","29.93","167","0.4","2.4","0.00","0.00"
"10:49:58","83","76.4","80.5","29.93","166","1.2","4.8","0.00","0.00"
"10:54:56","83.1","76.6","80.9","29.93","164","1.1","4.6","0.00","0.00"
"10:59:59","83.2","76.6","80.7","29.93","163","0.4","3.6","0.00","0.00"
"11:04:59","83.4","76.8","80.6","29.93","153","1.5","4.8","0.00","0.00"
"11:09:59","83.8","77.4","81.1","29.93","120","1","4.6","0.00","0.00"
"11:14:59","84.1","77","79.5","29.93","126","1.6","4.8","0.00","0.00"
"11:19:59","84.3","77.2","79.4","29.93","154","1.7","4.8","0.00","0.00"
"11:24:57","84.6","77.5","79.4","29.93","153","2.2","6","0.00","0.00"
"11:29:56","85.3","77.9","78.8","29.93","129","1.6","6","0.00","0.00"
"11:34:59","85.6","77.4","76.6","29.93","134","2.6","6","0.00","0.00"
"11:39:59","85.9","78.2","78","29.93","128","2","6","0.00","0.00"
"11:44:58","85.8","77.9","77.3","29.93","126","2","5.8","0.00","0.00"
"11:49:58","86","77.9","76.9","29.93","121","0.6","3.5","0.00","0.00"
"11:54:57","86.4","77.9","76.1","29.93","134","2.5","7.2","0.00","0.00"
"11:59:56","86.2","77.5","75.6","29.93","187","4.3","8.4","0.00","0.00"
"12:04:56","86.4","77.8","75.8","29.93","129","2.1","6","0.00","0.00"
"12:09:56","86.8","77.7","74.7","29.93","160","2.6","7.2","0.00","0.00"
"12:14:59","86.5","77.3","74.3","29.93","131","2.6","7.2","0.00","0.00"
"12:19:58","86.6","77.7","74.9","29.93","131","2.4","6","0.00","0.00"
"12:24:57","86.7","77.5","74.2","29.93","150","2.8","8.4","0.00","0.00"
"12:29:56","86.5","77.4","74.4","29.93","143","1.8","8.1","0.00","0.00"
"12:34:59","86.4","77.2","74.2","29.93","143","2","6","0.00","0.00"
"12:39:57","86.5","77.3","74.2","29.93","141","1.8","6","0.00","0.00"
"12:44:57","87.1","77.6","73.4","29.93","117","2.1","8.4","0.00","0.00"
"12:49:56","86.8","76.9","72.3","29.92","159","3","8.4","0.00","0.00"
"12:54:59","87","77.5","73.4","29.92","190","2.7","7.2","0.00","0.00"
"12:59:59","87.1","77.2","72.5","29.92","152","2.8","6","0.00","0.00"
"13:04:59","87.7","78","73.1","29.92","170","2.4","7.2","0.00","0.00"
"13:09:58","88.4","78","71.6","29.92","183","4.4","8.4","0.00","0.00"
"13:14:58","88.3","77.4","70.2","29.92","110","2.5","5.8","0.00","0.00"
"13:19:58","87.9","77.5","71.3","29.91","163","3","6","0.00","0.00"
"13:24:57","87.8","76.5","69.5","29.91","146","2.5","6","0.00","0.00"
"13:29:56","87.8","76.8","69.9","29.91","144","2.6","8.4","0.00","0.00"
"13:34:59","88.1","76.9","69.6","29.91","187","2.3","6.9","0.00","0.00"
"13:39:59","88.5","77.1","69.2","29.91","165","2.9","6","0.00","0.00"
"13:44:58","88.8","76.5","67.2","29.91","155","2.2","5.8","0.00","0.00"
"13:49:58","89.2","76.7","67","29.91","163","3","10.8","0.00","0.00"
"13:54:57","89.4","77","67","29.91","128","1.5","5.8","0.00","0.00"
"13:59:57","89.3","77.3","68","29.91","127","1.9","6","0.00","0.00"
"14:04:56","89.1","76.8","67.1","29.89","137","2.4","6","0.00","0.00"
"14:09:56","89.2","77.4","68.3","29.89","137","3.9","8.4","0.00","0.00"
"14:14:58","89.7","77.4","67.3","29.89","182","3.1","8.1","0.00","0.00"
"14:19:58","90.8","78.1","66.5","29.89","199","1.8","7.2","0.00","0.00"
"14:24:58","90.5","77.2","65.2","29.89","149","3","7.2","0.00","0.00"
"14:29:57","89.7","76.3","65","29.89","208","2.6","6","0.00","0.00"
"14:34:57","90","77.1","66.2","29.89","138","2.7","7.2","0.00","0.00"
"14:39:58","90.1","77.5","66.4","29.89","132","2.3","8.4","0.00","0.00"
"14:44:57","90.4","77.3","65.7","29.89","176","3.7","8.1","0.00","0.00"
"14:49:57","90.6","77.5","65.6","29.87","142","1.9","6","0.00","0.00"
"14:54:57","90.4","77.3","65.7","29.87","131","2.5","7.2","0.00","0.00"
"14:59:57","90.4","77.7","66.6","29.87","188","2.9","10.8","0.00","0.00"
"15:04:58","90","76.7","65","29.87","171","4.4","12","0.00","0.00"
"15:09:58","89.7","77","66.5","29.87","182","3.2","7.2","0.00","0.00"
"15:14:58","90.4","78","67.2","29.87","165","1.7","4.8","0.00","0.00"
"15:19:57","90.6","78.2","67.4","29.87","133","3.1","8.4","0.00","0.00"
"15:24:57","90","77.7","67.2","29.87","133","3.5","6.9","0.00","0.00"
"15:29:57","89.5","77.9","68.9","29.87","132","3","7.2","0.00","0.00"
"15:34:57","89.3","77.7","68.8","29.86","150","4","8.4","0.00","0.00"
"15:39:59","89.9","78.6","69.5","29.86","166","2.6","8.4","0.00","0.00"
"15:44:58","89.8","77.6","67.7","29.86","120","3.1","7.2","0.00","0.00"
"15:49:59","88.9","77.5","69.3","29.86","120","2.6","6","0.00","0.00"
"15:54:59","88.8","78","70.5","29.86","171","2.2","7.2","0.00","0.00"
"15:59:59","89.6","78.7","70.4","29.86","135","2.2","6","0.00","0.00"
"16:04:59","90.5","78.8","68.8","29.85","131","3.8","10.8","0.00","0.00"
"16:09:59","90.6","78.8","68.6","29.85","138","3.5","8.4","0.00","0.00"
"16:14:56","90.8","78.7","67.9","29.85","141","3.7","8.4","0.00","0.00"
"16:19:56","90.7","78.1","66.9","29.84","125","3.6","8.4","0.00","0.00"
"16:24:56","90.1","78","67.6","29.84","124","3","7.2","0.00","0.00"
"16:29:56","89.9","78","68.2","29.84","155","4","7.2","0.00","0.00"
"16:34:59","90","78.1","68.2","29.84","143","3.2","8.4","0.00","0.00"
"16:39:56","89.7","77.5","67.6","29.84","139","5","13.2","0.00","0.00"
"16:44:56","88.7","77","68.5","29.84","161","3.5","8.1","0.00","0.00"
"16:49:57","88.2","77.2","70","29.84","129","3","7.2","0.00","0.00"
"16:54:57","87.8","77.2","70.9","29.84","136","3.5","7.2","0.00","0.00"
"16:59:57","87.6","77","70.9","29.84","125","3.2","7.2","0.00","0.00"
"17:04:58","87.5","77.2","71.6","29.84","117","3.2","7.2","0.00","0.00"
"17:09:57","87.4","77.3","72","29.84","137","4.3","13.2","0.00","0.00"
"17:14:58","87.9","77.6","71.8","29.84","127","3.9","11.5","0.00","0.00"
"17:19:58","88.5","77.4","70","29.82","131","4.5","12","0.00","0.00"
"17:24:57","88.6","77.9","70.7","29.82","138","3.1","12","0.00","0.00"
"17:29:58","88.7","77.8","70.3","29.83","139","3.2","8.4","0.00","0.00"
"17:34:57","88.6","77.9","70.7","29.83","153","3.2","13.2","0.00","0.00"
"17:39:58","88.5","77.5","70.1","29.83","133","3.2","8.4","0.00","0.00"
"17:44:57","87.9","77","70.1","29.83","152","3.6","7.2","0.00","0.00"
"17:49:58","87.4","76.7","70.9","29.83","139","3.9","10.8","0.00","0.00"
"17:54:57","87","76.8","71.7","29.83","131","3.7","8.4","0.00","0.00"
"17:59:57","87.4","77.2","71.9","29.83","129","4.1","10.8","0.00","0.00"
"18:04:58","87.8","76.9","70.4","29.83","141","2.5","9.2","0.00","0.00"
"18:09:57","87.7","76.7","70.2","29.83","142","3.1","6","0.00","0.00"
"18:14:58","87.4","76.4","70","29.83","183","3.8","8.4","0.00","0.00"
"18:19:58","87.1","76.2","70.2","29.83","162","3.3","8.1","0.00","0.00"
"18:24:58","87","76.5","71","29.83","145","3.2","8.4","0.00","0.00"
"18:29:58","86.8","76.4","71.2","29.83","136","3.9","12","0.00","0.00"
"18:34:58","86.7","76.3","71.3","29.83","145","3.2","8.4","0.00","0.00"
"18:39:59","86.8","76.7","72","29.83","167","2.9","8.4","0.00","0.00"
"18:44:59","86.7","76.4","71.5","29.83","159","2.9","7.2","0.00","0.00"
"18:49:59","86.5","76.4","72","29.83","163","2.1","6","0.00","0.00"
"18:54:59","86.3","76.2","71.8","29.83","171","2.4","5.8","0.00","0.00"
"18:59:59","86.2","76.2","72.2","29.83","161","1.4","4.8","0.00","0.00"
"19:04:59","86.1","76.3","72.8","29.83","185","1.7","6","0.00","0.00"
"19:09:59","85.9","76.4","73.5","29.83","197","2.8","6","0.00","0.00"
"19:14:59","85.7","76.5","74.1","29.83","182","3.2","6","0.00","0.00"
"19:19:56","85.6","76.8","75","29.83","179","2.8","7.2","0.00","0.00"
"19:24:56","85.4","76.7","75.4","29.83","170","2.5","7.2","0.00","0.00"
"19:29:56","85.3","76.9","76","29.83","155","3.2","7.2","0.00","0.00"
"19:34:56","85.1","76.7","76","29.83","167","3.6","8.4","0.00","0.00"
"19:39:57","84.9","76.8","76.8","29.83","185","3.8","8.4","0.00","0.00"
"19:44:57","84.7","76.7","77","29.83","179","3.4","9.6","0.00","0.00"
"19:49:58","84.6","77","78","29.83","179","2.3","6.9","0.00","0.00"
"19:54:57","84.4","76.8","78","29.83","185","2.4","6","0.00","0.00"
"19:59:57","84.2","76.9","78.6","29.84","156","2.3","6","0.00","0.00"
"20:04:58","84.1","77","79.2","29.84","172","2","4.8","0.00","0.00"
"20:09:58","83.9","77.1","80","29.84","168","2.1","7.2","0.00","0.00"
"20:14:59","83.6","77.1","81","29.84","162","2.8","7.2","0.00","0.00"
"20:19:56","83.2","77.1","82","29.84","155","2.4","6","0.00","0.00"
"20:24:56","83","77.1","82.4","29.84","125","1.1","4.8","0.00","0.00"
"20:29:57","82.8","77.1","83","29.84","124","1.2","4.6","0.00","0.00"
"20:34:57","82.6","77.2","83.7","29.83","126","0.1","3.5","0.00","0.00"
"20:39:59","82.4","77.1","84","29.83","126","0","0","0.00","0.00"
"20:44:59","82.3","77","84","29.83","126","0","0","0.00","0.00"
"20:49:56","82.1","77.1","85","29.83","152","0.3","3.6","0.00","0.00"
"20:54:56","81.9","76.9","85","29.83","154","2","4.8","0.00","0.00"
"20:59:57","81.7","77","85.8","29.84","156","2","4.8","0.00","0.00"
"21:04:58","81.6","76.6","85.1","29.84","157","1.8","3.6","0.00","0.00"
"21:09:58","81.5","76.6","85","29.84","160","2.1","3.6","0.00","0.00"
"21:14:58","81.4","76.6","85.3","29.84","159","1.3","4.8","0.00","0.00"
"21:19:59","81.3","76.5","85.5","29.84","183","1.9","4.8","0.00","0.00"
"21:24:56","81.2","76.6","86","29.84","183","1.4","3.6","0.00","0.00"
"21:29:56","81","76.4","86.1","29.84","183","2.1","4.8","0.00","0.00"
"21:34:57","80.8","76.6","87","29.84","185","2.7","6","0.00","0.00"
"21:39:58","80.7","76.5","87","29.84","190","2.2","6","0.00","0.00"
"21:44:58","80.5","76.3","87","29.84","178","2.5","5.8","0.00","0.00"
"21:49:56","80.4","76.2","87","29.84","189","2.5","4.8","0.00","0.00"
"21:54:56","80.2","75.9","86.8","29.84","211","3.4","7.2","0.00","0.00"
"21:59:57","79.9","74.7","84.3","29.85","211","4.7","13.2","0.00","0.00"
"22:04:58","79.5","72.9","80.3","29.85","192","6.1","12","0.00","0.00"
"22:09:58","79.1","72","79","29.85","186","4.2","13.2","0.00","0.00"
"22:14:58","78.7","71.6","79","29.88","180","5.8","16.1","0.00","0.00"
"22:19:59","78.2","71.5","79.9","29.88","173","5.2","13.2","0.00","0.00"
"22:24:58","77.8","71.6","81.4","29.88","149","4.8","14.4","0.00","0.00"
"22:29:57","77.4","71.7","82.8","29.88","155","3.9","10.8","0.00","0.00"
"22:34:59","76.6","71.7","84.7","29.88","149","4.6","12","0.04","0.03"
"22:39:59","75.6","71.6","87.6","29.88","140","1.9","8.4","0.06","0.06"
"22:44:58","75","71.6","89","29.88","140","0.2","2.4","0.06","0.06"
"22:49:58","74.5","71.6","90.7","29.87","140","0.5","2.4","0.06","0.06"
"22:54:57","74.1","71.6","91.9","29.87","140","0.1","1.2","0.06","0.06"
"22:59:56","73.9","71.5","92.4","29.87","140","0","0","0.07","0.07"
"23:04:56","73.7","71.5","93","29.86","140","0.1","1.2","0.07","0.07"
"23:09:58","73.5","71.6","93.6","29.86","140","0","1.2","0.07","0.07"
"23:14:58","73.3","71.5","94","29.86","140","0","0","0.07","0.07"
"23:19:58","73.3","71.5","94","29.86","181","0.5","3.6","0.07","0.07"
"23:24:57","73.2","71.6","94.7","29.86","190","1.4","3.6","0.07","0.07"
"23:29:57","73.1","71.6","95","29.86","190","0.4","3.6","0.07","0.07"
"23:34:56","73","71.5","95","29.86","190","0.4","2.4","0.07","0.07"
"23:39:56","72.9","71.4","95","29.86","190","0","1.2","0.07","0.03"
"23:44:59","72.8","71.3","95","29.86","190","0","0","0.07","0.01"
"23:49:59","72.7","71.2","95","29.85","190","0","0","0.07","0.01"
"23:54:59","72.8","71.3","95","29.85","190","0","0","0.07","0.01"
